N53JO EDFZ-EDGS

Flight info

Callsign N53JO
Flight time 0h 18m
Altitude 11000
Route TABUM TABUM3A
Aircraft E121/L-SDFGHRY/S

Departure

Time 2026-04-16 16:19
Airport Mainz-Finthen Airfield (EDFZ)

Arrival

Time 2026-04-16 16:38
Airport Siegerland Airport (EDGS)
Time Latitude Longitude Altitude Speed Heading
2026-04-16 16:13 49.97123 8.14989 756 ft 0 kts 255°
2026-04-16 16:17 49.97122 8.14987 755 ft 2 kts 235°
2026-04-16 16:17 49.97106 8.15023 755 ft 8 kts 93°
2026-04-16 16:18 49.97123 8.15128 757 ft 12 kts 73°
2026-04-16 16:18 49.97098 8.15213 757 ft 11 kts 144°
2026-04-16 16:18 49.97069 8.15326 757 ft 14 kts 85°
2026-04-16 16:18 49.97039 8.15416 757 ft 8 kts 170°
2026-04-16 16:19 49.97012 8.15330 755 ft 25 kts 254°
2026-04-16 16:19 49.96855 8.14446 842 ft 122 kts 255°
2026-04-16 16:19 49.96607 8.13050 1358 ft 140 kts 258°
2026-04-16 16:19 49.96864 8.11586 1857 ft 156 kts 313°
2026-04-16 16:20 49.97873 8.10889 2392 ft 164 kts 346°
2026-04-16 16:20 49.99022 8.10566 2813 ft 173 kts 352°
2026-04-16 16:20 50.00264 8.10618 3189 ft 183 kts
2026-04-16 16:20 50.01564 8.10798 3390 ft 192 kts
2026-04-16 16:21 50.02913 8.10982 3383 ft 196 kts
2026-04-16 16:21 50.04276 8.11176 3385 ft 197 kts
2026-04-16 16:21 50.05647 8.11360 3386 ft 199 kts
2026-04-16 16:21 50.07019 8.11537 3391 ft 197 kts
2026-04-16 16:22 50.08390 8.11732 3394 ft 198 kts
2026-04-16 16:22 50.09754 8.11920 3396 ft 199 kts
2026-04-16 16:22 50.11136 8.12108 3414 ft 198 kts
2026-04-16 16:22 50.12503 8.12294 3466 ft 196 kts
2026-04-16 16:23 50.13865 8.12472 3484 ft 197 kts
2026-04-16 16:23 50.15230 8.12648 3485 ft 197 kts
2026-04-16 16:23 50.16596 8.12823 3488 ft 197 kts
2026-04-16 16:23 50.17964 8.12993 3488 ft 197 kts
2026-04-16 16:24 50.19271 8.13160 3910 ft 182 kts
2026-04-16 16:24 50.20527 8.13388 4413 ft 180 kts
2026-04-16 16:24 50.21663 8.14174 4927 ft 184 kts 40°
2026-04-16 16:24 50.22346 8.15853 5426 ft 186 kts 74°
2026-04-16 16:25 50.22566 8.17847 5928 ft 187 kts 78°
2026-04-16 16:25 50.23010 8.19753 6431 ft 187 kts 64°
2026-04-16 16:25 50.23577 8.21587 6918 ft 189 kts 64°
2026-04-16 16:25 50.24155 8.23559 6992 ft 209 kts 65°
2026-04-16 16:26 50.24771 8.25664 6994 ft 220 kts 65°
2026-04-16 16:26 50.25418 8.27872 6999 ft 225 kts 65°
2026-04-16 16:26 50.26041 8.30138 7002 ft 228 kts 67°
2026-04-16 16:26 50.26691 8.32406 7004 ft 229 kts 63°
2026-04-16 16:27 50.27379 8.34654 7003 ft 229 kts 64°
2026-04-16 16:27 50.28050 8.36920 7003 ft 229 kts 64°
2026-04-16 16:27 50.28797 8.39052 7004 ft 220 kts 50°
2026-04-16 16:27 50.29978 8.40459 6996 ft 211 kts 21°
2026-04-16 16:28 50.31384 8.40983 6992 ft 207 kts
2026-04-16 16:28 50.32841 8.41252 6993 ft 214 kts
2026-04-16 16:28 50.34334 8.41572 6995 ft 218 kts
2026-04-16 16:28 50.35844 8.41868 7005 ft 220 kts
2026-04-16 16:29 50.37370 8.42167 7007 ft 221 kts
2026-04-16 16:29 50.38903 8.42473 7005 ft 222 kts
2026-04-16 16:29 50.40434 8.42796 7004 ft 222 kts
2026-04-16 16:29 50.41969 8.43155 7004 ft 223 kts
2026-04-16 16:30 50.43489 8.43440 7007 ft 223 kts
2026-04-16 16:30 50.45027 8.43728 7007 ft 222 kts
2026-04-16 16:30 50.46563 8.44034 7007 ft 222 kts
2026-04-16 16:30 50.48096 8.44343 7006 ft 222 kts
2026-04-16 16:31 50.49634 8.44658 7004 ft 223 kts
2026-04-16 16:31 50.51166 8.44878 6999 ft 214 kts 354°
2026-04-16 16:31 50.52523 8.44240 6996 ft 197 kts 326°
2026-04-16 16:31 50.53533 8.42831 6948 ft 195 kts 307°
2026-04-16 16:32 50.54379 8.41085 6704 ft 207 kts 306°
2026-04-16 16:32 50.55284 8.39267 6449 ft 214 kts 306°
2026-04-16 16:32 50.56211 8.37427 6200 ft 213 kts 306°
2026-04-16 16:32 50.57115 8.35643 6002 ft 202 kts 306°
2026-04-16 16:33 50.57945 8.33987 5950 ft 187 kts 306°
2026-04-16 16:33 50.58748 8.32374 5717 ft 186 kts 306°
2026-04-16 16:33 50.59549 8.30777 5484 ft 185 kts 306°
2026-04-16 16:33 50.60345 8.29192 5255 ft 184 kts 306°
2026-04-16 16:34 50.61133 8.27618 5002 ft 183 kts 307°
2026-04-16 16:34 50.61930 8.26027 4663 ft 186 kts 307°
2026-04-16 16:34 50.62733 8.24422 4337 ft 187 kts 307°
2026-04-16 16:34 50.63525 8.22842 4012 ft 183 kts 306°
2026-04-16 16:35 50.64291 8.21298 3674 ft 173 kts 307°
2026-04-16 16:35 50.65019 8.19851 3351 ft 164 kts 307°
2026-04-16 16:35 50.65688 8.18517 3201 ft 148 kts 308°
2026-04-16 16:35 50.66296 8.17280 3062 ft 139 kts 306°
2026-04-16 16:36 50.66890 8.16081 2942 ft 138 kts 308°
2026-04-16 16:36 50.67470 8.14914 2873 ft 132 kts 306°
2026-04-16 16:36 50.68034 8.13801 2778 ft 127 kts 306°
2026-04-16 16:36 50.68548 8.12681 2607 ft 128 kts 308°
2026-04-16 16:37 50.69125 8.11582 2399 ft 129 kts 308°
2026-04-16 16:37 50.69655 8.10538 2238 ft 109 kts 307°
2026-04-16 16:37 50.70048 8.09746 2098 ft 79 kts 308°
2026-04-16 16:37 50.70414 8.09004 1998 ft 92 kts 307°
2026-04-16 16:38 50.70709 8.08394 1959 ft 40 kts 290°
2026-04-16 16:38 50.70727 8.08168 1960 ft 14 kts 273°
2026-04-16 16:38 50.70713 8.08109 1960 ft 6 kts 224°
2026-04-16 16:38 50.70690 8.08037 1960 ft 9 kts 290°
2026-04-16 16:39 50.70727 8.07953 1960 ft 10 kts 307°
2026-04-16 16:39 50.70771 8.07864 1960 ft 11 kts 306°
2026-04-16 16:39 50.70750 8.07786 1961 ft 10 kts 185°
2026-04-16 16:39 50.70699 8.07815 1960 ft 7 kts 43°
2026-04-16 16:40 50.70726 8.07822 1960 ft 0 kts 335°